[[{"header":{"parameterUnit":"m.s-1","parameterCategory":1,"la1":30.2991,"la2":30.254,"lo1":-89.0895,"lo2":-89.0444,"dy":0.0017,"dx":0.0017,"nx":28,"ny":28,"refTime":"2023-10-24T21:00:00:Z","depth":0,"parameterNumber":2,"parameterNumberName":"U-component_of_WINDS"},"data":[0,0,0,0,0,0,0,0,0,0,0,0,0,0,0,0,0,0,0,0,0,0,0,0,0,0,0,0,0,0,0,0,0,0,0,0,0,0,0,0,0,0,0,0,0,0,0,0,0,0,0,0,0,0,0,0,0,0,-6.1283,-6.1283,0,-6.1304,-6.1304,-6.1304,-6.1188,-6.1185,-6.1181,-6.1178,-6.12,-6.1204,-6.1207,0,0,0,0,0,0,0,0,0,0,0,0,0,-6.1143,-6.1146,-6.1283,-6.1283,-6.1283,-6.1304,-6.1304,-6.1304,-6.1188,-6.1184,-6.118,-6.1177,-6.1199,-6.1203,-6.1208,0,0,0,0,0,0,0,0,0,0,0,0,0,-6.1188,-6.1147,-6.1283,-6.1228,-6.1223,-6.1304,-6.1304,-6.1304,-6.1189,-6.1184,-6.1179,-6.1175,-6.1197,-6.1203,-6.1208,-6.1342,0,0,-6.1225,-6.1227,0,0,0,0,0,0,0,0,-6.1185,-6.1193,-6.1236,-6.1232,-6.1227,-6.1238,-6.1263,-6.1317,-6.1191,-6.1202,-6.1178,-6.1172,-6.1217,-6.122,-6.1235,-6.1343,-6.1344,-6.1226,-6.1229,-6.1231,-6.1233,0,0,0,0,0,0,0,-6.1182,-6.1191,-6.1291,-6.1237,-6.1231,-6.1202,-6.1203,-6.1272,-6.1237,-6.1201,-6.1192,-6.1196,-6.1213,-6.123,-6.1235,-6.1345,-6.1225,-6.123,-6.1234,-6.1236,-6.1564,-6.1569,0,0,0,0,0,0,-6.1186,-6.119,-6.129,-6.1292,-6.1193,-6.1209,-6.121,-6.124,-6.1236,-6.1231,-6.1201,-6.1191,-6.1223,-6.1229,-6.1235,-6.1392,-6.1231,-6.1236,-6.124,-6.1559,-6.1565,-6.1571,0,0,0,0,0,0,-6.1184,-6.1197,-6.129,-6.1238,-6.1248,-6.1217,-6.1251,-6.1243,-6.1259,-6.1236,-6.1229,-6.1224,-6.1219,-6.1227,-6.1317,-6.1391,-6.1239,-6.1244,-6.1552,-6.1561,-6.1568,-6.1707,0,0,0,0,0,0,-6.118,-6.1196,-6.1247,-6.124,-6.1251,-6.1371,-6.1255,-6.1247,-6.1269,-6.1257,-6.1257,-6.1252,-6.1216,-6.1309,-6.1322,-6.1396,-6.1248,-6.1546,-6.1556,-6.1566,-6.1695,-6.1718,-6.1738,0,0,0,0,0,-6.1176,-6.1285,-6.125,-6.1263,-6.1314,-6.1375,-6.1381,-6.1338,-6.1276,-6.1326,-6.1311,-6.1252,-6.1381,-6.1319,-6.1333,-6.1409,-6.1541,-6.1553,-6.1565,-6.1686,-6.1714,-6.1738,0,0,0,0,0,0,-6.1301,-6.1283,-6.1244,-6.1355,-6.1367,-6.1356,-6.1418,-6.137,-6.14,-6.1387,-6.1332,-6.1334,-6.1432,-6.143,-6.1361,-6.1539,-6.145,-6.1466,-6.1537,-6.1564,-6.1585,-6.1583,-6.1253,0,0,0,0,0,-6.1341,-6.1393,-6.1374,-6.1474,-6.1482,-6.145,-6.1475,-6.144,-6.1451,-6.1456,-6.1448,-6.1461,-6.1504,-6.1534,-6.1573,-6.1695,-6.1693,-6.1754,-6.1776,-6.1794,-6.1807,-6.1872,-6.1899,-6.1611,-6.1611,-6.1611,0,0,-6.1425,-6.1422,-6.1458,-6.1499,-6.1505,-6.1559,-6.1455,-6.1517,-6.1556,-6.1465,-6.1549,-6.1544,-6.1555,-6.1661,-6.1707,-6.1662,-6.1887,-6.1809,-6.1824,-6.1827,-6.1887,-6.1914,-6.1938,-6.1619,-6.1618,-6.1617,0,0,-6.1606,-6.1609,-6.1692,-6.17,-6.171,-6.1688,-6.1708,-6.1704,-6.1697,-6.178,-6.1713,-6.176,-6.1836,-6.1846,-6.1862,-6.2048,-6.1994,-6.2062,-6.2174,-6.2238,-6.226,-6.228,-6.2346,-6.237,-6.2076,-6.2077,-6.2077,0,-6.1709,-6.1788,-6.174,-6.1807,-6.1827,-6.1748,-6.1831,-6.1841,-6.1864,-6.188,-6.1829,-6.1923,-6.1925,-6.2033,-6.2078,-6.2094,-6.2115,-6.2061,-6.2261,-6.228,-6.2298,-6.236,-6.2385,-6.2085,-6.2084,-6.2083,-6.2082,0,-6.1914,-6.197,-6.2036,-6.206,-6.2087,-6.2162,-6.2126,-6.216,-6.2124,-6.2107,-6.2193,-6.2193,-6.223,-6.2253,-6.2218,-6.2356,-6.2328,-6.227,-6.2179,-6.2334,-6.2392,-6.2415,-6.2096,-6.2094,-6.2091,-6.2089,0,0,-6.2172,-6.217,-6.2194,-6.2204,-6.221,-6.2253,-6.2325,-6.2361,-6.2391,-6.241,-6.2468,-6.2535,-6.2482,-6.25,-6.2466,-6.2522,-6.2669,-6.2457,-6.2456,-6.2495,-6.282,-6.2863,-6.2891,-6.2634,-6.2638,-6.2642,-6.2819,0,-6.2348,-6.2469,-6.2429,-6.2553,-6.2604,-6.253,-6.2592,-6.2603,-6.259,-6.2632,-6.2617,-6.2665,-6.2591,-6.2601,-6.2654,-6.264,-6.2733,-6.2627,-6.2687,-6.269,-6.2685,-6.2921,-6.2966,-6.3133,-6.2841,-6.2845,-6.2848,0,-6.2569,-6.2597,-6.2725,-6.2723,-6.2743,-6.28,-6.283,-6.2871,-6.2882,-6.2868,-6.2889,-6.2844,-6.2914,-6.2824,-6.292,-6.2849,-6.2872,-6.2869,-6.2875,-6.2877,-6.2777,-6.2929,-6.3185,-6.321,-6.2883,-6.288,-6.2877,0,-6.2743,-6.2813,-6.2899,-6.291,-6.291,-6.2951,-6.2953,-6.2959,-6.2984,-6.3011,-6.3026,-6.3062,-6.3081,-6.3109,-6.3075,-6.3013,-6.3176,-6.3083,-6.3166,-6.3167,-6.3203,-6.3201,-6.3465,-6.322,-6.322,-6.3219,-6.3219,0,-6.2943,-6.3025,-6.2977,-6.303,-6.3119,-6.3073,-6.3162,-6.3156,-6.3163,-6.3213,-6.3152,-6.32,-6.3152,-6.3197,-6.317,-6.3254,-6.3263,-6.3254,-6.3246,-6.3259,-6.326,-6.3272,-6.3259,-6.3226,-6.3224,-6.3223,-6.3222,0,-6.3152,-6.3124,-6.3213,-6.3206,-6.3206,-6.3272,-6.3266,-6.3314,-6.3297,-6.3362,-6.3374,-6.3348,-6.3397,-6.3365,-6.3415,-6.3398,-6.3506,-6.3483,-6.3503,-6.3496,-6.358,-6.3572,-6.386,-6.3895,-6.3629,-6.3632,-6.3634,0,-6.3281,-6.3342,-6.3342,-6.3371,-6.3377,-6.3425,-6.345,-6.3407,-6.3436,-6.3453,-6.35,-6.3544,-6.3577,-6.3659,-6.3644,-6.3682,-6.3658,-6.3757,-6.3663,-6.3674,-6.3658,-6.3655,-6.366,-6.3775,-6.3778,-6.3781,-6.3783,0,-6.3512,-6.3495,-6.3533,-6.3568,-6.3599,-6.3624,-6.3643,-6.3671,-6.3628,-6.3664,-6.3713,-6.3739,-6.379,-6.3834,-6.3866,-6.3868,-6.3819,-6.3813,-6.3833,-6.3846,-6.3855,-6.3851,-6.3552,-6.3806,-6.3803,-6.3802,-6.38,-6.3799,-6.3684,-6.3734,-6.3742,-6.3787,-6.3798,-6.3818,-6.3863,-6.3852,-6.3892,-6.393,-6.3903,-6.3962,-6.3972,-6.401,-6.4018,-6.4064,-6.4024,-6.4054,-6.4062,-6.407,-6.4081,-6.3849,-6.407,-6.4069,-6.4068,-6.4068,-6.4067,0,-6.391,-6.3912,-6.3954,-6.3984,-6.4019,-6.397,-6.399,-6.4023,-6.4075,-6.4089,-6.4122,-6.4179,-6.4222,-6.4212,-6.425,-6.4289,-6.4267,-6.4301,-6.4296,-6.4298,-6.4115,-6.4092,-6.4317,-6.4317,-6.4317,-6.4317,-6.4317,-6.4317,-6.4033,-6.4115,-6.41,-6.4188,-6.4189,-6.4246,-6.4261,-6.4279,-6.429,-6.4356,-6.4392,-6.4385,-6.4389,-6.4427,-6.4465,-6.446,-6.4477,-6.4519,-6.4506,-6.4335,-6.4311,-6.4287,-6.4265,-6.4523,-6.4523,-6.4685,-6.4686,-6.4687]},{"header":{"parameterUnit":"m.s-1","parameterCategory":1,"la1":30.2991,"la2":30.254,"lo1":-89.0895,"lo2":-89.0444,"dy":0.0017,"dx":0.0017,"nx":28,"ny":28,"refTime":"2023-10-24T21:00:00:Z","depth":0,"parameterNumber":3,"parameterNumberName":"V-component_of_WINDS"},"data":[0,0,0,0,0,0,0,0,0,0,0,0,0,0,0,0,0,0,0,0,0,0,0,0,0,0,0,0,0,0,0,0,0,0,0,0,0,0,0,0,0,0,0,0,0,0,0,0,0,0,0,0,0,0,0,0,0,0,-0.0217,-0.0217,0,-0.0212,-0.0212,-0.0212,-0.0211,-0.0212,-0.0212,-0.0212,-0.0208,-0.0208,-0.0208,0,0,0,0,0,0,0,0,0,0,0,0,0,-0.0227,-0.0227,-0.0217,-0.0217,-0.0217,-0.0212,-0.0212,-0.0212,-0.0211,-0.0212,-0.0212,-0.0212,-0.0208,-0.0208,-0.0208,0,0,0,0,0,0,0,0,0,0,0,0,0,-0.0223,-0.0227,-0.0217,-0.0217,-0.0216,-0.0212,-0.0212,-0.0212,-0.0211,-0.0212,-0.0212,-0.0212,-0.0208,-0.0208,-0.0208,-0.0205,0,0,-0.0207,-0.0207,0,0,0,0,0,0,0,0,-0.0223,-0.0222,-0.0217,-0.0217,-0.0216,-0.0212,-0.0214,-0.0209,-0.0211,-0.0213,-0.0212,-0.0212,-0.021,-0.0209,-0.0208,-0.0204,-0.0204,-0.0207,-0.0207,-0.0207,-0.0207,0,0,0,0,0,0,0,-0.0223,-0.0222,-0.0215,-0.0217,-0.0216,-0.0216,-0.0215,-0.0213,-0.0211,-0.0213,-0.0213,-0.0212,-0.021,-0.0208,-0.0208,-0.0204,-0.0207,-0.0207,-0.0207,-0.0207,-0.0193,-0.0193,0,0,0,0,0,0,-0.0224,-0.0223,-0.0215,-0.0215,-0.022,-0.0216,-0.0215,-0.0214,-0.0211,-0.0211,-0.0212,-0.0212,-0.0209,-0.0208,-0.0208,-0.0201,-0.0207,-0.0207,-0.0207,-0.0193,-0.0193,-0.0193,0,0,0,0,0,0,-0.0224,-0.0223,-0.0216,-0.0219,-0.0218,-0.0215,-0.0214,-0.0213,-0.0212,-0.021,-0.021,-0.0211,-0.0209,-0.0208,-0.0204,-0.0201,-0.0207,-0.0206,-0.0193,-0.0193,-0.0193,-0.0189,0,0,0,0,0,0,-0.0224,-0.0223,-0.0222,-0.0219,-0.0218,-0.0212,-0.0214,-0.0213,-0.0211,-0.0212,-0.021,-0.0209,-0.0209,-0.0205,-0.0204,-0.0201,-0.0206,-0.0194,-0.0193,-0.0193,-0.0189,-0.0188,-0.0188,0,0,0,0,0,-0.0224,-0.0223,-0.0222,-0.0221,-0.0217,-0.0212,-0.0212,-0.021,-0.0211,-0.021,-0.0208,-0.0209,-0.0201,-0.0204,-0.0204,-0.02,-0.0194,-0.0193,-0.0193,-0.019,-0.0189,-0.0188,0,0,0,0,0,0,-0.0228,-0.0223,-0.0222,-0.0219,-0.0216,-0.0212,-0.0211,-0.021,-0.0207,-0.0208,-0.0207,-0.0206,-0.0201,-0.0201,-0.0204,-0.0195,-0.0198,-0.0197,-0.0195,-0.0194,-0.0194,-0.0194,-0.0206,0,0,0,0,0,-0.0228,-0.0225,-0.0221,-0.0218,-0.0217,-0.0214,-0.0212,-0.0211,-0.0208,-0.0207,-0.0205,-0.0202,-0.0198,-0.0197,-0.0194,-0.0189,-0.0187,-0.0186,-0.0185,-0.0185,-0.0184,-0.0178,-0.0176,-0.0191,-0.0191,-0.0191,0,0,-0.0229,-0.0226,-0.0224,-0.0219,-0.0216,-0.0212,-0.0213,-0.021,-0.0206,-0.0207,-0.0202,-0.02,-0.0197,-0.0191,-0.0189,-0.019,-0.0179,-0.0184,-0.0183,-0.0183,-0.0177,-0.0176,-0.0174,-0.0191,-0.0191,-0.0191,0,0,-0.0229,-0.0226,-0.0223,-0.0219,-0.0214,-0.0211,-0.021,-0.0206,-0.0204,-0.0198,-0.0198,-0.0193,-0.0189,-0.0185,-0.0183,-0.0175,-0.0175,-0.0174,-0.017,-0.0164,-0.0163,-0.0162,-0.0157,-0.0155,-0.0174,-0.0174,-0.0174,0,-0.0231,-0.0224,-0.0221,-0.0216,-0.0213,-0.0211,-0.0206,-0.0203,-0.0198,-0.0195,-0.0196,-0.0187,-0.0185,-0.0177,-0.0174,-0.0173,-0.0171,-0.0175,-0.0163,-0.0162,-0.0161,-0.0156,-0.0155,-0.0174,-0.0174,-0.0174,-0.0174,0,-0.0226,-0.0221,-0.0218,-0.021,-0.0207,-0.0202,-0.0197,-0.0194,-0.0192,-0.0189,-0.0181,-0.0178,-0.0173,-0.0171,-0.0171,-0.0161,-0.0162,-0.0164,-0.0166,-0.0159,-0.0155,-0.0153,-0.0173,-0.0173,-0.0173,-0.0173,0,0,-0.023,-0.0217,-0.0216,-0.0211,-0.0203,-0.0199,-0.0193,-0.0186,-0.0181,-0.0177,-0.0171,-0.0164,-0.0164,-0.0161,-0.016,-0.0154,-0.0145,-0.0156,-0.0156,-0.0152,-0.0131,-0.0129,-0.0127,-0.0145,-0.0144,-0.0144,-0.0131,0,-0.0227,-0.0215,-0.021,-0.02,-0.0194,-0.019,-0.0184,-0.0178,-0.0174,-0.0168,-0.0164,-0.0158,-0.0159,-0.0157,-0.0152,-0.0147,-0.014,-0.0148,-0.0138,-0.0137,-0.0137,-0.0125,-0.0124,-0.0112,-0.0129,-0.0129,-0.0129,0,-0.0223,-0.0215,-0.0204,-0.0193,-0.019,-0.0185,-0.0175,-0.017,-0.0162,-0.0159,-0.0153,-0.0151,-0.0143,-0.0146,-0.0134,-0.0139,-0.0134,-0.0131,-0.013,-0.0128,-0.0132,-0.0121,-0.0108,-0.0105,-0.0126,-0.0126,-0.0127,0,-0.0223,-0.0211,-0.0201,-0.0197,-0.0185,-0.0181,-0.0175,-0.0167,-0.0162,-0.0154,-0.015,-0.0142,-0.0137,-0.013,-0.0125,-0.0128,-0.0112,-0.0115,-0.0108,-0.0108,-0.0105,-0.0105,-0.0088,-0.0104,-0.0104,-0.0104,-0.0104,0,-0.022,-0.0213,-0.0201,-0.0195,-0.0186,-0.018,-0.0171,-0.0165,-0.0157,-0.0149,-0.0146,-0.0138,-0.0133,-0.0124,-0.012,-0.0108,-0.0107,-0.0104,-0.0102,-0.0103,-0.0103,-0.0099,-0.0099,-0.0103,-0.0103,-0.0104,-0.0104,0,-0.0221,-0.0212,-0.0201,-0.0189,-0.0185,-0.0179,-0.0168,-0.0161,-0.0155,-0.0145,-0.0142,-0.0133,-0.0123,-0.0116,-0.0104,-0.0101,-0.0087,-0.0088,-0.009,-0.0089,-0.008,-0.008,-0.006,-0.0056,-0.0076,-0.0076,-0.0076,0,-0.0219,-0.0212,-0.0198,-0.0191,-0.0185,-0.0175,-0.0168,-0.0161,-0.0154,-0.0141,-0.0136,-0.0124,-0.0115,-0.0097,-0.009,-0.0079,-0.0078,-0.0071,-0.0076,-0.0076,-0.0075,-0.0074,-0.0072,-0.007,-0.007,-0.007,-0.007,0,-0.0215,-0.021,-0.02,-0.0187,-0.0178,-0.0169,-0.0159,-0.0154,-0.0144,-0.0136,-0.0123,-0.0116,-0.01,-0.0088,-0.0076,-0.007,-0.0067,-0.0068,-0.0065,-0.0065,-0.0066,-0.0063,-0.0085,-0.0069,-0.0069,-0.0069,-0.0069,-0.0069,-0.0213,-0.0205,-0.0192,-0.018,-0.0171,-0.0161,-0.0152,-0.0144,-0.0133,-0.0119,-0.0115,-0.0101,-0.0089,-0.0072,-0.0065,-0.0054,-0.0055,-0.0052,-0.0051,-0.005,-0.0048,-0.0068,-0.0052,-0.0052,-0.0052,-0.0052,-0.0052,0,-0.0207,-0.0197,-0.0186,-0.017,-0.016,-0.0156,-0.0144,-0.0135,-0.0123,-0.0111,-0.0101,-0.0084,-0.0071,-0.0061,-0.0047,-0.004,-0.0038,-0.0036,-0.0036,-0.0034,-0.0049,-0.0052,-0.0038,-0.0038,-0.0038,-0.0038,-0.0038,-0.0038,-0.0203,-0.0189,-0.0182,-0.0162,-0.0152,-0.0137,-0.013,-0.012,-0.011,-0.0091,-0.0079,-0.0072,-0.006,-0.0045,-0.0032,-0.0029,-0.0023,-0.0021,-0.0018,-0.0032,-0.0034,-0.0035,-0.0037,-0.002,-0.002,-0.0003,-0.0003,-0.0003]}]]